This is the latest recevied weather packets stored in our database for station/object KB4JHU-15. If no packets are shown the sender has not sent any weather packets the latest 10 day(s).
| Time | Temp. | Humidity | Pressure | Rain* | Wind** | Luminosity | Snow |
|---|---|---|---|---|---|---|---|
| 1788179035 | 21.67° C | 94% | - | 0 mm | - | - | - |
| 1788177234 | 21.11° C | 95% | - | 0 mm | - | - | - |
| 1788175433 | 20.56° C | 95% | - | 0 mm | - | - | - |
| 1788173632 | 21.11° C | 94% | - | 0 mm | - | - | - |
| 1788171831 | 21.67° C | 94% | - | 0 mm | - | - | - |
| 1788170030 | 21.11° C | 94% | - | 0 mm | - | - | - |
| 1788168229 | 21.67° C | 94% | - | 0 mm | - | - | - |
| 1788166428 | 22.22° C | 93% | - | 0 mm | - | - | - |
| 1788164627 | 21.67° C | 92% | - | 0 mm | - | - | - |
| 1788162826 | 22.22° C | 92% | - | 0 mm | - | - | - |
| 1788161025 | 22.22° C | 91% | - | 0 mm | - | - | - |
| 1788159224 | 22.22° C | 92% | - | 0 mm | - | - | - |
| 1788157423 | 22.22° C | 91% | - | 0 mm | - | - | - |
| 1788155622 | 22.78° C | 90% | - | 0 mm | - | - | - |
| 1788153821 | 23.33° C | 89% | - | 0 mm | - | - | - |
| 1788152020 | 23.33° C | 88% | - | 0 mm | - | - | - |
| 1788150219 | 23.89° C | 86% | - | 0 mm | - | - | - |
| 1788148418 | 23.89° C | 85% | - | 0 mm | - | - | - |
| 1788146617 | 24.44° C | 83% | - | 0 mm | - | - | - |
| 1788144816 | 25° C | 81% | - | 0 mm | - | - | - |
| 1788143015 | 25.56° C | 79% | - | 0 mm | - | - | - |
| 1788141214 | 26.11° C | 77% | - | 0 mm | - | - | - |
| 1788139413 | 26.67° C | 74% | - | 0 mm | - | - | - |
| 1788137612 | 27.78° C | 68% | - | 0 mm | - | - | - |
| 1788135811 | 28.89° C | 62% | - | 0 mm | - | - | - |
* Rain latest hour (hover to see other rain measurements)
** Current wind speed in m/s (hover to see current wind gust speed)